Dewpoint
59 60 61 62 62 61 61 61 61 61 61 61 60 59 60 61 61 60 60 60 60 59 59 59 59 58 58 58 58 57 58 58 59 59 59 59 60 60 60 60 60 60 60 60 61 60 60 60 59 59 59 59 59 59 59 59 59 59 58 57 55 52 46 44 41 38 38 43 43 41 43 44 44 44 45 46 49 47 46 45 44 45 44 42 43
59 60 61 62 62 61 61 61 60 60 60 60 59 60 61 62 61 60 59 59 59 58 59 59 58 58 58 57 57 57 56 58 58 59 59 59 58 60 60 60 60 60 60 60 60 61 60 60 60 59 60 59 58 59 60 59 59 58 57 55 55 55 46 43 39 36 35 41 41 41 42 42 39 40 42 44 47 48 43 43 43 43 41 40 40
60 59 60 62 62 62 61 61 60 60 60 59 60 61 61 62 61 59 59 59 58 58 59 58 58 58 57 57 57 56 56 57 58 58 58 58 58 58 59 59 59 58 59 60 60 60 59 60 59 59 60 58 58 58 59 59 58 58 56 56 55 54 47 40 38 36 36 40 42 39 40 40 38 37 38 41 44 46 44 42 42 42 40 38 38
61 60 60 61 61 62 61 61 61 60 60 59 60 61 61 61 61 60 59 58 57 57 58 58 58 57 57 57 56 55 55 56 57 57 57 57 57 57 58 58 58 58 58 58 58 58 59 58 58 59 59 58 57 57 58 58 58 57 57 56 53 54 49 39 37 37 38 39 41 38 39 38 38 37 36 38 40 43 44 43 42 41 39 37 36
61 61 60 60 61 61 61 61 60 60 59 59 60 60 60 61 61 59 59 58 57 57 57 57 57 57 57 56 54 54 54 55 56 56 56 56 55 56 57 56 57 57 57 57 59 58 58 58 58 59 58 58 56 56 57 57 58 57 56 54 54 54 50 41 38 37 38 38 41 41 41 38 38 37 36 35 37 40 42 43 43 41 40 38 36
60 60 60 60 60 60 61 60 60 59 58 59 60 60 60 60 61 59 58 58 57 56 56 56 56 55 55 54 53 52 52 53 55 55 55 55 55 54 55 55 55 55 55 56 57 58 58 57 58 58 58 58 57 56 57 57 57 56 55 54 54 53 50 42 40 38 37 38 40 41 40 38 39 38 36 36 36 38 40 41 42 43 42 41 39
59 57 58 59 59 59 60 59 60 59 59 59 60 60 60 60 60 59 59 58 56 56 55 55 55 54 53 51 50 49 49 49 51 52 53 54 54 53 54 54 53 53 54 56 57 58 57 57 57 57 57 57 57 56 56 55 56 55 54 54 52 51 49 42 40 37 38 39 40 40 40 40 40 38 37 37 37 38 39 41 41 41 43 42 41
56 57 58 58 57 59 59 59 59 59 59 59 60 60 60 60 60 59 59 57 55 55 54 53 52 50 49 48 48 48 47 47 47 49 51 53 53 53 53 53 53 54 55 57 57 57 57 57 56 56 56 56 57 56 56 56 55 55 54 54 53 50 48 44 41 38 38 40 39 39 40 40 40 41 39 39 39 39 39 41 40 41 42 42 41
54 57 58 58 58 58 59 59 59 59 59 59 59 59 60 60 59 59 58 56 55 53 52 50 49 48 47 46 46 46 45 45 45 46 49 51 52 53 52 52 53 55 56 56 56 56 55 55 55 55 57 59 56 55 56 56 56 55 53 53 53 49 46 44 42 41 40 39 40 41 40 39 40 41 40 39 38 38 39 41 41 41 41 42 42
51 52 54 58 58 58 59 59 59 59 58 59 59 58 59 59 58 57 54 53 52 51 49 48 46 45 44 43 43 43 43 43 43 43 45 48 51 52 52 52 52 54 56 56 56 56 56 55 56 59 56 53 49 46 48 51 53 54 53 54 52 48 46 44 42 41 41 40 40 41 39 39 39 40 40 39 39 40 40 40 39 40 41 41 42
47 49 50 51 57 58 59 59 59 58 58 59 58 58 58 58 57 56 54 53 51 49 47 45 44 43 42 41 41 40 41 40 39 38 40 45 51 52 52 52 52 54 56 56 56 56 55 54 52 54 50 49 46 43 42 43 44 46 48 51 52 50 49 47 45 45 44 42 44 43 41 39 39 41 41 41 41 40 40 41 41 41 41 40 39
46 47 48 50 51 57 58 58 58 58 58 58 57 57 57 56 56 54 52 49 48 46 44 43 42 41 40 38 38 39 38 39 37 38 38 42 49 53 53 52 51 53 55 55 55 54 52 51 51 52 52 53 51 47 47 44 41 40 41 41 40 40 42 49 49 48 48 48 47 45 43 42 42 44 44 44 43 43 43 43 42 42 42 42 41
45 45 47 48 49 50 57 57 57 57 57 57 57 57 56 55 54 52 48 46 44 43 41 40 39 39 37 36 36 36 36 38 37 38 39 42 47 51 53 52 51 51 52 52 51 51 51 50 48 47 46 50 49 49 50 46 45 43 42 44 45 43 41 41 43 49 48 47 47 47 47 46 47 47 48 47 47 44 45 45 44 44 43 42 42
45 45 45 46 47 48 51 56 56 56 56 56 56 56 54 53 52 51 47 44 42 41 41 40 40 38 35 34 34 35 37 38 37 39 41 43 46 49 54 54 53 53 53 52 52 52 50 48 45 42 41 43 44 47 50 51 50 53 53 53 52 48 45 44 44 45 47 48 46 46 48 48 48 48 50 50 50 49 47 47 47 46 45 44 44
44 45 45 45 46 47 48 50 53 55 55 55 54 53 52 51 50 49 47 44 43 42 42 40 38 37 34 33 34 35 38 38 38 39 41 42 45 49 52 51 50 50 50 51 49 47 45 42 39 38 38 40 42 46 51 52 52 53 53 52 51 48 45 44 45 45 46 48 49 49 49 50 50 50 50 48 49 49 50 49 50 49 48 46 47
43 44 44 45 46 46 47 47 49 51 52 52 51 51 51 50 49 49 48 47 46 45 43 41 38 36 35 33 33 34 36 37 38 39 41 43 46 50 48 46 44 43 43 42 41 41 40 39 38 37 37 38 39 39 43 46 45 46 48 50 50 48 45 45 41 42 44 44 46 46 47 49 45 47 47 46 47 47 47 47 48 48 47 46 46
42 43 44 45 45 46 46 46 47 49 49 49 49 49 49 48 48 49 48 47 46 45 43 41 39 36 34 33 32 33 35 36 36 37 39 41 44 47 45 42 41 40 40 40 41 41 39 38 37 36 35 35 37 37 38 41 41 41 41 42 43 42 40 41 39 39 39 39 39 40 40 41 43 45 45 43 44 44 46 50 50 48 47 47 46
43 43 44 45 45 46 46 46 46 47 48 48 48 48 48 48 46 47 47 46 45 44 42 39 38 37 35 34 34 34 36 37 36 36 36 38 43 45 44 42 40 38 37 37 38 39 41 43 41 35 34 36 36 36 37 39 38 39 38 36 35 37 38 39 40 41 40 39 39 40 40 40 42 43 44 44 46 43 47 46 48 46 46 43 45
43 44 44 45 45 46 46 46 46 46 47 47 48 47 47 48 48 48 48 47 45 44 42 40 40 39 38 39 41 37 37 38 37 36 36 37 41 43 44 42 40 39 38 37 38 38 38 39 41 39 38 37 35 35 36 38 39 39 38 34 34 36 39 39 40 40 41 41 42 43 42 43 44 45 45 42 43 46 47 47 47 46 46 45 45
43 44 44 45 45 46 46 45 45 45 46 47 47 47 48 48 48 48 48 47 46 45 44 41 40 41 40 39 39 38 38 38 38 37 37 37 38 41 43 43 42 42 41 39 39 38 38 38 40 36 35 35 35 35 35 36 37 38 37 36 36 36 39 39 41 41 41 42 42 43 43 43 44 44 44 45 46 47 47 47 47 46 47 47 46
43 43 44 43 44 44 45 45 45 45 46 46 47 47 47 47 47 47 47 46 45 44 44 43 42 42 42 42 41 40 40 38 38 37 37 37 38 39 41 42 43 42 40 39 39 39 38 38 39 37 36 36 36 35 36 36 37 38 38 38 39 40 39 39 41 42 41 41 42 42 43 43 43 43 44 45 46 46 47 47 47 47 47 47 47
42 42 41 42 43 43 44 44 45 45 45 45 45 46 46 47 47 47 47 46 44 44 43 43 43 43 43 43 42 42 43 42 41 38 37 37 37 38 40 40 41 41 41 39 39 39 39 38 39 37 36 36 36 36 36 36 37 39 36 35 34 35 39 40 41 41 41 41 41 41 42 42 43 43 43 44 45 45 46 46 45 45 45 47 48
41 41 40 40 41 42 43 43 44 44 44 44 44 44 45 45 46 46 46 46 44 43 43 43 42 42 42 43 43 42 42 42 39 40 37 37 37 37 37 39 38 42 40 39 39 39 38 38 39 38 36 36 36 36 37 37 37 36 35 35 33 33 37 39 39 40 39 39 40 40 40 41 42 42 42 43 43 44 45 44 42 42 40 40 40
40 41 41 40 39 39 41 43 43 43 43 43 43 43 44 44 44 45 45 46 45 44 43 43 43 42 42 42 42 42 42 42 39 38 38 37 37 37 36 36 37 39 39 38 38 38 38 38 38 36 36 36 36 36 36 36 36 36 36 35 36 37 39 40 39 39 38 38 39 39 40 40 40 42 42 42 42 42 43 42 41 38 38 38 37
40 41 41 42 41 41 41 41 42 43 43 43 42 42 42 43 43 44 44 45 45 44 44 43 42 42 42 41 41 41 41 41 40 38 37 37 36 36 36 36 36 36 37 37 37 38 37 36 36 36 36 36 36 36 37 37 36 36 37 37 40 39 39 39 39 40 40 38 38 38 39 39 40 40 40 40 40 41 41 42 41 39 38 37 38
41 41 42 42 42 41 41 41 42 42 42 42 42 42 42 42 42 42 43 43 44 44 44 44 43 42 41 41 40 40 40 39 37 37 38 38 37 36 36 36 37 37 37 36 36 36 36 36 37 37 37 37 38 38 37 37 37 37 37 38 38 37 38 38 38 39 38 38 38 39 39 39 40 41 39 39 40 40 40 40 40 41 41 40 41
41 41 42 42 42 41 40 41 41 41 41 41 41 41 41 41 41 40 41 42 42 42 43 42 42 41 40 40 39 39 38 38 36 35 35 36 36 36 36 36 37 37 37 36 37 37 36 37 36 36 36 36 36 36 37 37 37 37 37 37 37 37 37 36 36 37 37 38 38 38 37 38 38 38 39 38 39 39 39 39 38 39 39 39 37
38 38 40 41 42 42 41 37 39 40 39 39 39 39 40 40 38 37 38 39 41 41 41 41 41 41 40 40 39 39 38 37 36 35 35 35 35 35 35 36 35 35 35 35 36 38 37 36 36 37 37 37 36 36 36 36 36 35 36 36 36 36 37 37 36 35 35 35 35 35 36 36 36 37 37 38 38 38 38 38 37 38 38 38 36
38 36 36 37 39 40 41 40 40 40 39 38 37 38 38 38 38 38 38 37 38 40 41 40 41 41 41 40 38 38 35 35 35 35 34 35 34 35 35 35 35 35 35 35 37 36 36 36 35 35 35 34 34 35 35 34 34 35 35 35 34 34 34 34 34 34 34 34 34 34 34 35 35 36 35 37 38 37 36 36 36 36 37 35 35
39 39 37 36 35 38 40 39 39 38 39 38 37 36 34 35 36 36 35 35 35 35 35 37 38 38 38 38 37 36 35 35 35 34 35 35 35 35 35 35 35 35 34 35 36 35 34 34 34 34 34 34 33 33 33 33 33 33 32 33 33 33 33 33 33 33 32 32 32 32 33 33 34 35 36 36 36 35 34 34 33 34 33 33 33
34 33 34 35 35 36 38 39 38 36 35 35 36 37 36 35 34 35 35 35 35 35 35 35 35 35 36 35 35 35 35 34 34 35 35 35 35 35 34 35 35 35 35 34 34 34 34 33 33 33 33 33 33 32 32 32 31 31 31 31 32 32 31 32 32 31 31 31 31 31 31 32 32 32 32 33 33 32 33 32 31 31 32 32 33
32 32 32 33 34 34 36 38 38 37 36 35 35 35 34 35 36 35 34 35 35 35 35 35 35 35 35 36 36 35 34 34 35 35 35 35 34 34 34 35 35 35 35 35 34 34 34 33 33 33 33 32 32 31 32 31 31 31 30 31 31 31 31 31 31 32 31 31 31 31 30 30 30 30 30 30 30 31 30 31 31 31 31 30 32
32 31 31 32 34 35 34 34 36 38 38 36 36 35 33 33 33 33 34 34 35 35 35 35 35 35 35 35 35 35 34 35 35 35 35 35 34 35 35 35 35 35 35 34 34 34 34 33 33 33 33 32 31 31 31 32 31 31 31 31 31 31 32 32 30 30 29 29 28 29 30 30 30 30 30 29 29 27 29 30 32 32 32 33 33
34 32 31 31 32 34 36 35 34 34 35 35 35 36 35 35 34 33 33 33 34 34 34 35 35 35 35 35 35 35 34 34 35 35 34 34 34 35 35 34 35 35 35 34 34 33 34 33 33 33 32 32 32 32 32 31 31 31 31 30 30 30 30 29 29 30 29 30 30 29 29 29 28 28 29 29 28 27 28 29 30 31 31 32 33
34 32 30 31 31 33 34 34 32 32 32 34 33 33 35 35 34 33 33 32 33 33 33 34 34 35 34 34 35 34 34 35 35 35 35 35 35 35 35 34 34 34 35 35 35 34 33 33 33 33 32 32 31 31 32 31 30 30 30 29 29 29 29 30 30 29 29 28 29 29 29 29 29 28 27 28 29 30 29 30 31 32 32 32 32
34 31 30 31 31 32 34 35 32 31 32 33 33 31 32 34 34 34 34 34 34 33 33 33 34 35 35 35 34 34 34 35 35 35 35 35 35 34 34 33 33 34 34 34 34 34 34 33 33 33 33 32 32 31 31 30 30 30 30 29 29 29 29 29 29 29 28 29 29 29 30 29 29 29 28 29 29 29 30 30 31 31 32 32 32
33 31 30 30 32 32 33 33 31 31 31 32 31 31 31 31 33 35 35 35 33 33 33 33 33 33 33 33 34 34 34 34 34 34 35 35 35 34 34 34 34 34 34 34 34 34 34 34 33 33 33 32 32 31 31 30 30 30 31 30 29 30 29 28 29 28 28 29 29 29 27 29 29 29 29 30 30 30 30 31 31 32 32 32 32
34 31 29 30 32 32 33 33 32 31 31 31 32 31 31 32 32 32 33 32 32 32 32 32 33 31 31 31 37 34 34 34 34 34 34 34 33 33 34 34 34 34 34 34 34 34 34 34 33 33 33 33 33 32 31 30 29 29 29 28 28 29 32 29 28 28 27 27 28 28 29 30 30 30 30 29 29 29 29 30 30 31 32 32 32
35 32 31 30 30 32 32 31 31 32 32 32 31 31 31 32 32 33 33 32 31 31 31 31 31 30 30 30 31 34 34 33 33 33 33 33 33 33 33 33 33 34 34 34 34 34 34 34 33 33 32 32 31 31 30 29 29 29 28 28 29 28 29 27 28 27 27 27 27 27 28 29 30 29 29 29 29 27 27 28 28 28 29 29 29
36 36 34 31 31 31 31 31 31 32 31 31 30 30 31 31 32 32 32 32 31 30 30 30 30 29 29 30 31 33 32 32 32 32 32 32 32 32 32 33 33 34 34 34 34 34 33 32 31 32 31 30 30 29 29 27 26 28 28 28 28 28 28 27 26 25 26 26 26 26 27 27 28 27 27 28 26 25 26 27 27 27 27 28 29
36 36 34 33 31 32 32 31 31 32 31 30 30 30 29 29 29 30 31 31 31 30 29 29 29 29 31 32 33 33 32 32 31 31 31 31 30 31 31 33 33 33 33 33 33 32 31 30 30 30 29 30 29 29 29 28 28 29 28 28 27 27 26 26 25 25 24 25 25 25 24 24 25 26 27 27 30 27 26 27 27 26 27 28 29
36 36 36 35 33 31 32 31 31 30 31 30 31 31 30 29 29 29 29 29 30 28 27 29 30 31 33 33 33 33 32 31 31 31 30 30 30 31 31 33 34 33 32 32 32 30 29 30 30 29 29 28 29 28 29 28 26 26 25 25 25 26 26 25 25 25 24 24 23 23 23 24 25 26 25 31 25 25 26 26 27 28 28 28 29
35 36 35 34 33 31 31 32 31 30 29 29 29 30 30 29 29 29 29 29 29 30 31 31 30 30 31 32 32 32 32 31 30 30 30 30 29 30 31 32 32 32 31 31 30 29 29 29 27 27 26 27 26 26 25 25 23 23 23 23 23 24 23 24 24 25 25 24 23 23 22 22 23 23 23 25 23 23 25 28 30 31 31 31 31
35 36 36 35 33 31 30 30 30 30 29 29 29 28 29 30 30 30 30 30 30 31 31 31 30 30 30 31 31 31 30 30 29 29 29 28 29 31 31 31 31 29 27 27 27 28 29 28 27 27 27 28 28 29 28 27 25 23 23 24 25 25 22 23 23 22 23 23 23 23 23 23 24 22 25 25 23 25 27 27 29 29 30 30 31
36 38 37 35 34 31 30 30 29 29 30 29 29 29 29 29 29 30 30 31 30 30 30 31 31 30 30 31 31 31 30 30 29 29 29 30 31 30 29 27 26 26 26 26 24 26 25 24 24 24 24 25 27 28 28 28 27 26 24 22 23 23 23 23 23 23 23 23 22 23 24 23 22 22 24 24 25 25 27 28 30 30 30 29 29
35 36 36 35 34 32 29 29 30 29 29 29 29 29 29 29 29 30 31 31 30 30 30 31 31 31 32 32 32 30 29 29 29 28 29 29 30 29 27 27 26 26 25 24 24 23 22 22 22 22 24 24 25 26 26 27 28 28 28 27 25 25 26 25 24 23 23 22 22 23 23 23 22 25 27 25 24 25 25 26 27 29 30 30 30
33 31 33 34 34 32 31 30 29 30 30 30 29 28 29 29 29 30 31 31 31 31 31 31 30 31 31 31 31 29 29 30 29 28 27 27 27 27 28 28 27 26 26 26 24 23 22 22 21 23 24 22 23 25 25 24 24 26 27 27 27 27 27 26 25 24 22 22 23 23 22 23 23 23 24 25 25 25 27 29 30 30 30 30 30
33 32 31 28 32 34 33 29 29 30 30 30 29 29 29 29 29 29 29 30 32 32 32 31 30 30 31 30 30 30 29 29 29 28 28 28 28 28 27 26 26 26 26 25 23 23 21 21 22 23 24 23 24 22 23 24 23 23 22 22 24 24 25 25 24 23 23 22 22 23 23 22 22 22 24 24 24 24 26 28 29 29 29 28 29
32 32 32 32 34 34 32 30 31 31 31 30 30 29 29 28 28 29 29 30 31 31 32 31 31 31 30 30 30 30 30 30 29 28 28 28 28 27 27 26 25 23 22 22 21 21 20 21 23 23 23 21 21 21 21 21 22 22 21 21 21 20 21 21 22 21 23 21 23 23 23 23 24 24 25 24 24 23 25 28 28 27 27 27 28
32 32 32 32 33 36 34 31 31 31 30 30 30 30 29 28 28 28 28 28 29 32 32 31 30 29 29 29 28 29 31 31 29 28 27 25 25 25 26 25 24 22 21 20 20 21 20 21 22 23 22 21 21 21 20 20 19 19 18 18 19 19 20 20 20 20 22 20 21 23 23 24 23 22 22 22 23 23 25 28 29 28 26 26 28
31 32 33 34 35 34 34 31 31 31 31 30 30 30 30 28 28 29 29 29 30 31 32 31 30 29 28 28 30 30 30 31 30 28 27 26 26 25 23 23 22 22 22 21 20 20 22 22 22 22 22 23 22 21 20 20 17 16 18 19 19 19 19 19 19 20 20 21 22 23 23 24 22 22 22 23 22 22 26 27 28 28 26 26 27